Regional Weather Roundup
Issued by NWS Newport/Morehead, NC

Current Version | Previous Version | Graphics & Text | Print | Product List | Glossary Off
Versions: 1 2 3 4 5 6 7 8 9 10 11 12 13 14 15 16 17 18 19 20 21 22 23 24 25 26 27 28 29 30 31 32 33 34 35 36 37 38 39 40 41 42 43 44 45 46 47 48 49 50

000
ASUS42 KMHX 201713
RWRMHX
WEATHER ROUNDUP FOR EASTERN NORTH CAROLINA
NATIONAL WEATHER SERVICE NEWPORT/MOREHEAD CITY NC
100 PM EDT FRI OCT 20 2017

NOTE: "FAIR" INDICATES FEW OR NO CLOUDS BELOW 12,000 FEET
WITH NO SIGNIFICANT WEATHER AND/OR OBSTRUCTIONS TO VISIBILITY

NCZ015>017-031-032-045>047-102-103-201800-
NORTH COAST

CITY           SKY/WX    TMP DP  RH WIND       PRES   REMARKS
EDENTON        SUNNY     76  57  51 CALM      30.23F
ELIZABETH CITY SUNNY     76  54  46 CALM      30.22F
KITTY HAWK     SUNNY     72  55  56 CALM      30.21F
MANTEO         SUNNY    N/A N/A N/A N6        30.23F

$$

NCZ045>047-081-094-103-104-201800-
CENTRAL COAST

CITY           SKY/WX    TMP DP  RH WIND       PRES   REMARKS
FRISCO         SUNNY     73  60  63 NW7       30.23F

$$

NCZ095-097-098-100-101-201800-
SOUTHERN COAST

CITY           SKY/WX    TMP DP  RH WIND       PRES   REMARKS
BEAUFORT       SUNNY     75  51  43 NW5       30.22F
CEDAR ISLAND   NOT AVBL
JACKSONVILLE   SUNNY     76  50  40 NW3       30.22F
PINEY ISLAND     N/A    N/A N/A N/A W6        30.22F
WILMINGTON     SUNNY     77  51  40 W6        30.23F


$$

NCZ011>013-027>030-043-044-078>080-089-090>093-098-201800-
COASTAL PLAIN

CITY           SKY/WX    TMP DP  RH WIND       PRES   REMARKS
AHOSKIE        SUNNY     73  51  45 NE7       30.24F
CLINTON        SUNNY     76  49  38 CALM      30.24F
ELIZABETHTOWN  NOT AVBL
GOLDSBORO      SUNNY     78  49  36 CALM      30.22F HAZE
GREENVILLE     SUNNY     73  52  46 CALM      30.24F
HAVELOCK       SUNNY     78  50  37 NW3       30.23F
KENANSVILLE    SUNNY     77  48  36 W6        30.24F
KINSTON        SUNNY     77  48  36 CALM      30.23F
NEW BERN       SUNNY     77  49  37 VRB3      30.24F
RICHLANDS      SUNNY     78  50  37 W6        30.23F
ROCKY MOUNT    SUNNY     75  51  43 NE6       30.24F
WASHINGTON     SUNNY     76  53  44 NW5       30.23F
WHITEVILLE     SUNNY     75  46  36 SW3       30.25F

$$

AMZ130-135-150-152-154-156-158-170-250-252-270-ANZ085-086-088-633-658-670-201800-
MARINE OBSERVATIONS

STATION/POSITION TIME  TEMP    WIND        PRES    WAVE   SWELL
                       AIR SEA DIR/SP/G            HT/PER HT/PER
                 (UTC) (F)     (DEG/KT/KT) (MB)    (FT/S) (FT/S)
CHESAPEAKE LIGHT NOT AVBL
64 E VA BEACH    1650   68 68  340/ 12/ 14 1023.2    3/ 9   3/ 9
DUCK             NOT AVBL
2 E DUCK         NOT AVBL
OREGON INLET     NOT AVBL
13E OREGON INLT  NOT AVBL
HATTERAS CG      NOT AVBL
DIAMOND BUOY     1650   72 81  340/  6/  8 1023.3    3/ 8   3/ 8
CAPE LOOKOUT     1700   73     310/  4/  5 1023.1
BEAUFORT LAB     NOT AVBL
30 SE NEW RVR IN NOT AVBL
30 SE NEW RVR IN NOT AVBL
27 SE WRIGHTSVLE NOT AVBL
5 SE WRIGHTSVLE  NOT AVBL
225 S CAPE HAT   1650   77 80   30/ 14/ 16 1021.4    5/ 8   3/ 8
41 SE CHARLESTON 1650   74 79   30/ 10/ 12 1023.7    4/ 8   3/ 8

$$




USA.gov is the U.S. government's official web portal to all federal, state and local government web resources and services.